Torna al catalogo

DELTA 1 DEB

AttivoUNKNOWN
NORAD 7035·DEBRIS·🇺🇸 United States

Lanciato Nov 6, 1973 da Vandenberg Space Force Base

Loading…

Prossimi Passaggi (prossime 24 ore)

TLE

AggiornatoSource: Space-Track

Epoca: Sep 13, 2026, 23:10 UTC

1  7035U 73086AB  26256.96588303 -.00000103  00000-0 -85855-3 0  9992
2  7035 101.7837 160.9609 0319219 315.6608  56.0765 11.83664341280858

Traccia DELTA 1 DEB in tempo reale con AllMySat

Download on the App Store